Location: Arleux
(50.3632°N, 2.8721°E)
Time: 05:26:57
(UTC+00:00)

USA 116 - Pass Details

Date: 15 December 2019
Orbit: 405 x 834 km, 97.9° (Epoch: 18 November)

Event Time Altitude Azimuth Distance (km) Brightness Sun altitude
Rises 05:07:27 0° 163° (SSE) 3,006 7.8 -23.3°
Reaches altitude 10° 05:09:34 10° 163° (SSE) 2,151 7.0 -23.0°
Maximum altitude 05:14:22 87° 77° (ENE) 754 4.3 -22.2°
Enters shadow 05:18:26 17° 347° (NNW) 1,889 6.2 -21.6°
